Location: Miss�
(46.9484°N, 0.1922°W)
Time: 06:46:48
(UTC+00:00)

Cosmos 1271 Rocket - Pass Details

Date: 02 March 2021
Orbit: 498 x 544 km, 81.2° (Epoch: 11 April)

Event Time Altitude Azimuth Distance (km) Brightness Sun altitude
Rises 18:42:07 0° 344° (NNW) 2,601 6.5 -10.0°
Reaches altitude 10° 18:44:16 10° 339° (NNW) 1,712 5.6 -10.4°
Maximum altitude 18:47:55 51° 264° (W) 634 3.6 -11.0°
Drops below altitude 10° 18:51:33 10° 187° (S) 1,706 5.4 -11.6°
Sets 18:53:42 0° 182° (S) 2,590 6.3 -12.0°
